Regional Weather Roundup
Issued by NWS

Home | Current Version | Previous Version | Text Only | Print | Product List | Glossary Off
Versions: 1 2 3 4 5 6 7 8 9 10 11 12 13 14 15 16 17 18 19 20 21 22 23 24 25 26 27 28 29 30 31 32 33 34 35 36 37 38 39 40 41 42 43 44 45 46 47 48 49 50

000
ASUS43 KLSX 220557
RWRMO

WEATHER SUMMARY FOR MISSOURI
NATIONAL WEATHER SERVICE SPRINGFIELD MO
1200 AM CST SUN JAN 22 2017

NOTE: "FAIR" INDICATES FEW OR NO CLOUDS BELOW 12,000 FEET WITH NO
       SIGNIFICANT WEATHER AND/OR OBSTRUCTIONS TO VISIBILITY.
       CURRENT SKY AND/OR WEATHER CONDITIONS ARE NOT AVAILABLE FOR
       CHILLICOTHE AND FARMINGTON.

MOZ001>031-035>038-043-044-053-054-220700-
...NORTHERN AND WESTERN MISSOURI...

CITY           SKY/WX    TMP DP  RH WIND       PRES   REMARKS
KANSAS CTY INT CLOUDY    46  41  82 NE7       29.52F
6HR MIN TEMP:  46; 6HR MAX TEMP:  51; 6HR PCP: TRACE;

LEE`S SUMMIT   CLOUDY    47  45  93 NE7       29.52F
6HR MIN TEMP:  46; 6HR MAX TEMP:  50; 6HR PCP:  0.03;

ST JOSEPH      CLOUDY    43  41  93 N7        29.54F
6HR MIN TEMP:  36; 6HR MAX TEMP:  45;

CHILLICOTHE      N/A     43  41  93 CALM      29.57R
6HR MIN TEMP:  37; 6HR MAX TEMP:  44;


$$
MOZ066>068-077>081-088>096-101>105-220700-
...SOUTHWEST MISSOURI...

CITY           SKY/WX    TMP DP  RH WIND       PRES   REMARKS
SPRINGFIELD    CLOUDY    52  48  86 NE7       29.43F
6HR MIN TEMP:  52; 6HR MAX TEMP:  60; 6HR PCP:  0.05;

JOPLIN         TSTM      51  50  96 NW5       29.45R
6HR MIN TEMP:  51; 6HR MAX TEMP:  59; 6HR PCP:  0.31;


$$
MOZ032>034-039>042-045>050-055>058-069>072-220700-
...CENTRAL MISSOURI...

CITY           SKY/WX    TMP DP  RH WIND       PRES   REMARKS
COLUMBIA       NOT AVBL
JEFFERSON CITY LGT RAIN  53  44  71 S5        29.58R
6HR MIN TEMP:  48; 6HR MAX TEMP:  58; 6HR PCP:  0.02;

ROLLA          LGT RAIN  50  49  96 NW7       29.52S
6HR MIN TEMP:  50; 6HR MAX TEMP:  56; 6HR PCP:  0.01;

SEDALIA        LGT RAIN  49  45  86 NE7       29.54F
6HR MIN TEMP:  48; 6HR MAX TEMP:  53; 6HR PCP:  0.01;

WARRENSBURG    LGT RAIN  45  45 100 NE8       29.53S

$$
MOZ051-052-059>065-220700-
...EAST CENTRAL MISSOURI...

CITY           SKY/WX    TMP DP  RH WIND       PRES   REMARKS
ST LOUIS INTL  CLOUDY    55  40  56 NE6       29.53F
6HR MIN TEMP:  49; 6HR MAX TEMP:  61;


$$
MOZ072>076-082>087-097>100-106>115-220700-
...SOUTH CENTRAL AND SOUTHEAST MISSOURI...

CITY           SKY/WX    TMP DP  RH WIND       PRES   REMARKS
CAPE GIRARDEAU PTCLDY    48  47  96 NE3       29.48F
6HR MIN TEMP:  48; 6HR MAX TEMP:  59;

POPLAR BLUFF   FOG       50  50 100 CALM      29.47F VSB 1
6HR MIN TEMP:  50; 6HR MAX TEMP:  60;

WEST PLAINS    CLOUDY    56  54  93 NE7       29.45F
6HR MIN TEMP:  56; 6HR MAX TEMP:  61;


$$


USA.gov is the U.S. government's official web portal to all federal, state and local government web resources and services.